GEFSNGP_con_maxscp_306.txt.gz
SCP
0 0 0 1 1 1 1 1 1 1 1 2 2 2 2 2 3 3 4 5 6 8 9 9 7 6 5 4 3 3 2 2 3 4 4 5 5 5 6 5 4 3 3 2
0 0 0 1 1 1 1 1 1 1 2 2 2 2 3 3 3 3 4 4 6 7 9 9 8 6 5 4 3 3 2 2 3 3 4 4 4 5 6 6 5 4 3 3
0 0 0 1 1 1 1 1 1 1 1 2 2 3 3 4 4 3 3 4 4 6 8 9 7 6 5 4 4 3 3 3 3 3 3 4 4 4 5 6 6 5 4 4
0 0 0 1 1 1 1 1 1 1 2 2 2 3 3 3 3 3 3 3 4 5 7 8 7 5 5 4 4 4 4 3 3 3 3 3 4 4 5 6 6 6 6 6
0 0 0 0 0 0 0 1 1 2 2 3 3 3 3 4 3 3 3 3 4 5 6 6 6 6 5 5 4 4 4 4 4 4 4 3 4 5 6 7 7 6 6 6
0 0 0 0 0 0 0 1 1 2 2 3 3 3 4 4 4 4 4 4 5 5 6 6 6 7 7 6 5 4 5 5 5 5 4 4 6 6 7 6 6 5 5 5
0 0 0 0 0 1 1 1 1 1 2 3 3 4 4 4 5 5 5 5 6 6 6 6 7 8 8 6 5 5 6 6 6 6 6 7 8 8 6 5 5 4 4 4
1 0 1 1 1 1 1 1 1 1 2 2 3 3 3 4 4 4 5 6 7 6 6 6 7 8 8 7 6 6 7 7 7 8 9 9 10 8 6 5 5 5 4 4
1 1 1 1 1 2 2 1 1 1 2 2 3 3 4 4 4 4 5 7 7 6 6 6 6 7 8 8 7 7 8 9 9 9 9 9 8 7 7 6 5 5 5 4
1 1 2 2 2 2 2 1 2 2 2 2 3 3 4 4 4 4 5 6 6 6 6 7 6 6 7 8 8 8 9 10 10 8 7 6 6 6 6 6 5 5 5 4
2 1 1 2 3 3 2 2 2 3 3 3 3 3 3 3 3 3 4 4 5 5 7 8 8 7 8 8 8 8 9 9 8 7 5 5 5 5 5 4 4 4 4 4
1 1 1 2 3 3 3 3 3 3 3 3 3 3 3 2 3 3 4 5 5 6 7 8 9 9 9 9 8 7 7 7 7 6 5 4 4 4 3 3 2 2 2 2
2 2 2 2 3 3 3 3 3 3 3 4 4 4 3 3 3 4 5 6 6 6 6 7 8 8 9 9 7 6 6 6 6 5 5 4 3 3 3 2 2 1 1 1
2 2 2 2 2 2 2 3 3 4 4 4 4 3 3 3 3 4 5 5 5 5 5 6 6 6 7 8 6 5 4 4 4 4 4 4 3 3 3 3 3 2 1 1
2 2 2 2 2 2 2 2 3 4 4 4 4 3 3 3 2 2 3 3 3 3 3 4 4 5 6 7 6 5 4 3 4 4 4 4 4 3 3 3 3 3 2 2
2 2 2 2 2 2 2 2 2 3 3 3 3 2 2 2 2 2 2 2 2 2 2 3 3 4 5 5 6 6 5 4 3 3 3 4 4 4 4 3 3 3 3 3
2 2 3 3 3 3 3 3 2 2 2 2 2 2 2 2 2 2 2 2 2 2 1 2 2 3 3 3 4 5 5 4 3 3 3 4 4 4 4 4 3 3 3 3
2 3 3 3 4 4 3 3 3 2 2 2 2 2 2 2 2 2 2 3 3 2 2 2 2 2 2 2 2 3 3 3 3 3 4 4 4 4 4 4 5 4 4 4
2 2 2 3 4 4 3 3 3 2 2 2 1 1 1 2 2 2 2 2 2 2 2 2 2 2 2 2 2 2 2 2 2 3 4 4 4 4 4 5 6 5 4 4
1 1 1 2 2 2 2 2 2 2 1 1 1 1 1 1 2 2 2 2 2 2 2 2 2 2 2 2 2 2 2 2 2 3 3 4 4 4 4 4 5 4 4 3
1 1 1 1 1 1 1 1 1 1 1 1 1 1 1 1 2 2 2 2 1 1 1 1 2 2 2 2 2 2 2 2 2 2 2 3 3 2 2 3 3 3 3 3
1 1 1 2 2 2 2 2 1 1 1 1 1 1 1 1 1 1 1 1 1 1 0 1 1 1 1 1 1 1 1 1 1 1 1 1 1 1 1 2 2 2 2 2
1 1 2 2 2 2 2 2 1 1 1 1 1 1 1 1 1 1 1 1 1 0 0 1 0 0 0 0 1 0 0 0 1 1 1 1 1 1 1 1 1 1 1 1
1 1 2 2 2 2 1 1 1 1 1 1 1 1 1 1 1 1 1 0 0 0 0 0 0 0 0 0 0 0 0 1 1 1 1 1 1 1 1 1 1 1 1 1
2 2 2 1 1 1 1 1 1 1 1 1 1 1 1 1 1 1 1 0 0 0 0 0 0 0 0 0 0 0 0 1 1 1 1 1 0 0 0 0 0 0 1 1
3 2 2 1 1 1 0 0 0 0 1 1 0 0 0 0 0 1 1 1 0 0 0 0 0 0 0 1 1 1 1 1 1 0 0 0 0 0 0 0 0 0 1 1
4 3 3 2 1 0 0 0 0 0 0 0 0 0 0 0 0 0 0 0 0 0 0 0 1 1 1 1 1 1 1 1 1 0 0 0 0 0 0 0 0 0 1 1

GEFSNGP_con_maxscp_312.txt.gz
SCP
0 0 0 0 0 0 0 1 1 1 2 3 4 4 4 5 6 7 7 7 7 7 7 7 8 9 9 9 9 8 7 7 8 8 8 7 6 6 5 5 5 5 6 6
0 0 0 0 0 0 1 1 1 1 2 3 4 5 5 6 7 8 8 8 6 6 6 7 8 8 9 10 10 9 8 8 8 7 6 6 5 5 5 5 5 5 6 6
0 0 0 0 1 1 1 1 1 1 2 3 5 7 8 9 8 9 10 9 6 5 6 7 7 9 10 11 11 11 10 9 8 7 5 4 4 4 5 5 6 6 6 6
1 1 1 1 1 1 1 1 1 2 3 4 7 10 12 11 10 9 9 9 6 5 6 8 9 10 11 11 11 11 11 11 10 8 6 5 4 4 5 6 8 8 7 6
1 1 1 1 1 1 1 1 2 3 4 5 6 9 10 11 9 7 7 7 7 7 8 9 10 11 12 12 12 12 12 12 12 10 8 6 6 6 6 8 9 9 7 7
1 1 1 1 1 1 1 1 2 4 5 5 6 8 9 10 9 9 9 8 8 9 9 10 10 11 12 12 11 12 14 15 14 12 10 9 8 8 8 9 9 8 7 6
1 1 1 1 1 1 2 2 3 4 6 7 10 12 13 12 10 10 10 9 9 9 9 9 9 10 10 10 11 12 15 16 15 13 11 11 10 10 10 10 9 7 7 7
1 1 2 3 3 4 4 4 4 4 6 9 12 14 13 11 9 9 9 8 8 8 9 9 10 9 9 9 12 15 17 17 16 15 13 11 11 11 11 11 9 8 8 8
2 2 3 4 5 6 6 5 4 4 5 8 10 10 9 8 6 6 7 8 8 7 8 10 12 11 10 10 14 19 21 19 17 16 15 13 11 11 11 10 9 8 7 7
3 2 3 4 4 4 5 5 4 3 4 5 6 6 6 6 5 4 5 7 7 7 9 12 13 12 11 11 14 19 21 19 17 16 15 13 11 9 9 9 8 7 7 7
3 3 3 3 3 3 4 4 3 3 3 5 5 6 6 6 5 5 6 7 9 10 12 14 14 13 11 11 13 16 17 16 15 14 13 11 9 7 6 6 6 6 6 6
3 3 3 3 4 4 4 4 3 3 3 5 7 8 8 8 8 8 9 10 11 13 15 15 14 11 10 10 12 14 14 13 11 10 9 8 6 5 4 4 4 4 4 4
2 2 2 2 3 4 4 4 4 3 2 4 6 7 8 8 9 10 10 10 10 11 12 12 10 9 8 8 11 12 12 11 9 7 6 6 5 4 4 3 3 3 2 2
1 1 1 1 1 2 3 3 3 2 2 3 4 5 5 6 7 7 7 6 6 7 8 7 7 6 6 6 8 10 9 8 8 7 6 5 4 4 4 4 4 4 3 2
1 1 1 1 1 1 2 3 3 3 2 2 3 4 4 4 5 4 4 3 4 4 5 5 5 5 4 5 6 7 7 6 7 7 6 5 4 4 4 5 5 5 5 3
1 1 1 1 1 2 3 4 4 4 3 3 3 4 5 4 4 3 3 3 4 4 4 5 4 4 4 4 5 6 6 5 6 6 6 6 5 5 6 6 6 6 6 5
1 1 1 1 2 3 4 6 6 5 4 4 4 4 5 5 4 4 4 4 5 6 6 6 5 4 4 4 4 4 5 6 6 6 6 6 7 7 8 7 7 7 6 6
1 1 1 1 2 3 5 6 6 6 6 7 6 6 6 5 5 4 4 4 5 6 7 6 5 4 4 4 4 4 5 6 6 6 6 6 7 8 7 6 6 5 5 4
0 0 0 1 1 3 3 4 5 6 7 8 8 7 6 5 4 4 4 4 4 5 6 5 4 3 3 4 4 4 4 4 4 4 5 5 6 6 5 4 4 3 3 3
1 0 0 0 1 2 2 3 4 4 5 6 5 5 5 4 4 4 4 4 4 5 5 4 3 3 3 3 3 3 2 2 2 2 3 4 4 4 3 3 3 2 2 2
1 1 1 1 1 1 1 2 2 3 3 3 3 3 3 3 3 3 3 3 3 4 4 3 3 3 3 2 2 2 2 1 1 2 2 3 3 3 2 2 2 2 1 1
1 1 2 1 1 1 1 1 2 2 2 2 2 2 2 2 2 2 2 2 2 3 3 2 2 2 2 2 1 1 1 1 2 2 3 2 2 2 2 1 1 1 1 1
1 1 2 1 1 1 1 1 2 2 2 1 2 2 2 2 1 1 1 1 1 1 1 1 1 1 1 1 2 2 2 2 3 3 2 2 1 1 1 1 1 1 1 1
1 1 1 1 1 1 1 2 2 2 2 2 2 2 2 2 1 1 1 1 0 0 1 1 1 0 1 2 3 3 3 3 3 2 2 1 1 1 1 1 1 1 1 1
1 1 1 1 1 1 2 2 2 2 2 2 2 2 2 2 1 1 1 0 0 0 1 1 1 1 1 2 3 3 3 2 2 1 1 1 1 1 1 2 1 1 1 1
1 1 1 1 1 1 2 2 2 2 2 1 1 1 1 1 1 1 1 1 1 1 1 1 1 1 1 2 2 2 1 1 1 1 1 1 1 1 2 2 1 1 2 2
1 1 2 1 1 1 2 2 2 2 2 1 1 1 1 1 1 1 1 1 1 1 1 1 1 1 1 1 1 1 1 1 1 0 0 0 1 1 2 2 1 2 2 2

GEFSNGP_con_maxscp_318.txt.gz
SCP
0 0 0 1 1 1 1 1 1 2 2 4 4 4 4 4 4 3 3 3 3 3 2 2 2 3 3 4 4 4 4 4 4 4 4 4 4 4 4 4 3 3 3 3
0 0 0 1 1 1 1 1 1 2 2 4 5 4 3 3 3 3 3 3 3 3 3 3 2 3 4 4 4 4 4 4 4 4 4 4 4 5 5 4 3 3 4 4
0 0 0 1 1 1 1 1 1 2 3 5 7 7 6 6 6 6 5 5 4 4 4 4 4 5 6 6 6 5 5 4 4 4 4 4 4 5 5 4 3 3 4 5
0 1 1 1 1 1 1 1 1 2 5 8 11 12 12 11 11 9 8 7 6 6 6 6 6 7 8 7 7 6 5 5 4 4 3 3 4 4 4 4 4 3 3 4
0 0 1 1 1 1 1 2 2 4 7 10 12 14 14 13 11 10 10 9 8 7 7 7 7 7 7 7 7 7 6 5 4 4 3 3 4 4 4 4 4 3 3 3
0 0 1 1 1 1 1 2 3 4 6 8 9 11 14 13 12 11 10 9 8 8 7 6 6 5 6 6 7 7 6 5 5 5 4 4 4 4 4 4 3 3 3 3
0 0 1 1 2 1 1 1 2 3 4 5 7 10 14 15 14 12 10 9 8 7 7 6 6 5 6 7 7 7 7 7 7 6 5 4 4 5 5 4 4 3 3 3
0 0 1 1 1 1 1 1 2 1 2 5 9 12 13 13 12 11 9 8 7 8 8 7 7 7 7 7 7 8 8 9 8 6 5 4 4 5 5 5 4 4 4 4
1 1 1 1 1 2 2 2 2 2 3 6 11 13 12 9 7 7 7 7 8 8 8 7 7 8 9 9 9 9 9 8 7 6 5 5 4 4 5 5 4 4 4 4
2 2 2 2 2 2 3 3 3 3 4 7 11 11 9 6 4 5 6 7 8 8 7 6 6 8 9 10 10 10 8 6 6 6 6 6 5 5 4 5 5 5 4 4
3 3 2 2 2 3 4 5 5 5 5 7 8 8 6 4 3 3 4 5 6 6 6 5 5 5 7 8 8 8 7 7 6 6 7 7 6 6 5 5 5 4 4 5
3 3 2 2 3 5 6 6 6 6 7 7 7 6 4 3 3 4 4 4 5 5 5 5 4 4 4 4 5 5 6 6 6 7 7 7 7 7 6 4 3 3 3 3
2 2 3 4 5 6 6 6 7 8 9 9 6 4 3 3 4 5 5 5 5 5 5 5 5 4 3 3 3 3 4 4 5 5 6 7 8 7 6 5 3 2 2 2
2 2 4 5 6 7 6 6 8 9 9 7 5 3 2 3 3 4 3 4 4 5 5 5 5 4 3 3 3 2 2 2 3 4 5 6 7 7 7 6 5 3 2 1
2 3 4 5 6 6 5 6 7 8 6 5 3 2 2 2 2 2 2 2 3 3 4 5 4 4 3 3 2 2 1 1 2 3 4 5 6 7 7 7 6 5 4 3
2 2 2 3 4 4 4 5 6 6 5 4 3 2 1 2 2 2 2 2 2 2 2 3 3 2 2 2 2 2 1 1 1 2 3 4 5 6 7 7 6 6 5 4
2 1 1 1 2 2 3 3 4 4 4 3 3 2 1 2 2 2 2 2 1 1 1 1 1 2 2 2 2 1 1 1 1 1 2 3 4 5 6 6 6 6 5 5
1 0 0 1 1 1 1 2 2 2 2 2 2 1 1 1 2 2 2 2 1 1 1 1 1 1 1 1 1 1 1 1 1 1 1 2 3 4 5 5 5 6 5 4
0 0 0 0 0 0 1 1 1 1 1 2 1 1 1 1 1 2 2 2 1 1 1 1 1 1 1 1 1 1 1 1 0 0 1 1 2 3 3 3 4 5 4 4
0 0 0 0 0 0 0 1 1 1 1 1 1 1 1 1 1 1 2 1 1 1 1 1 1 1 1 1 1 1 1 1 1 0 0 0 1 1 1 2 2 2 2 2
0 0 0 0 0 0 0 0 1 1 1 1 1 1 0 1 1 1 1 1 0 0 0 0 0 0 1 1 2 2 2 1 1 1 0 0 0 0 1 1 1 1 1 1
0 0 0 0 0 0 0 0 0 0 0 0 1 0 0 0 0 0 0 0 0 0 0 0 0 0 0 1 1 2 1 1 1 1 0 0 0 0 0 0 0 0 0 0
0 0 0 0 0 0 0 0 0 0 0 0 0 0 0 0 0 0 0 0 0 0 0 0 0 0 0 0 1 1 1 1 1 1 0 0 0 0 0 0 0 0 0 0
0 0 0 0 0 0 0 0 0 0 0 0 0 0 0 0 0 0 0 0 0 0 0 0 0 0 0 0 0 1 1 1 1 1 0 0 0 0 0 0 0 0 0 0
0 0 0 0 0 0 0 0 0 0 0 0 0 0 0 0 0 0 0 0 0 0 0 0 0 0 0 0 0 0 0 0 0 0 0 0 0 0 0 0 0 0 0 0
0 0 0 0 0 0 0 0 0 0 0 0 0 0 0 0 0 0 0 0 0 0 0 0 0 0 0 0 0 0 0 0 0 0 0 0 0 0 0 0 0 0 0 0
0 0 0 0 0 0 0 0 0 0 0 0 0 0 0 0 0 0 0 0 0 0 0 0 0 0 0 0 0 0 0 0 0 0 0 0 0 0 0 0 0 0 0 0

GEFSNGP_con_maxscp_324.txt.gz
SCP
0 0 1 1 1 0 0 0 0 0 1 1 2 3 4 4 3 2 1 1 1 2 2 1 1 1 1 1 2 3 3 3 3 3 4 4 5 4 4 3 3 3 3 3
0 0 1 1 1 1 0 0 0 0 1 1 2 3 4 3 2 1 1 1 1 2 2 2 2 2 2 2 3 3 4 3 3 3 3 3 4 3 3 2 2 2 2 3
0 0 0 1 1 1 0 1 1 1 1 2 3 4 4 3 2 2 2 2 3 3 3 3 3 3 3 3 3 4 4 3 3 3 3 2 2 2 2 2 2 2 2 2
0 0 0 0 0 0 1 1 1 1 1 2 3 4 3 3 3 4 4 4 5 5 5 4 4 4 4 4 4 4 4 3 3 2 2 2 2 2 2 2 2 2 2 2
0 0 0 0 1 1 1 1 1 2 3 4 4 3 3 3 4 5 6 6 6 6 7 5 4 5 6 6 5 5 4 3 3 3 2 2 2 2 2 2 2 2 2 2
0 0 0 0 1 1 1 1 2 3 4 4 4 3 2 3 4 5 5 6 6 6 6 5 4 6 7 6 5 5 4 4 4 4 3 3 2 2 2 2 2 2 2 2
0 0 0 0 1 1 1 1 2 3 4 4 3 2 2 2 3 4 4 5 5 5 4 3 4 5 5 4 3 3 4 5 5 5 4 4 3 3 3 3 2 2 2 3
0 0 0 1 1 1 1 1 1 2 2 2 2 2 2 3 3 3 3 3 4 4 3 2 2 2 2 1 1 2 4 5 5 5 4 4 4 5 4 4 3 3 3 3
0 0 1 1 1 1 1 1 1 1 2 2 2 2 3 4 3 3 2 2 3 3 2 2 2 2 2 2 2 3 4 5 6 5 5 4 5 5 5 4 4 3 3 2
1 1 1 1 1 1 1 1 2 2 2 2 2 3 3 3 2 2 3 3 3 2 3 3 4 5 5 4 3 4 4 5 5 5 5 5 4 4 4 4 4 4 3 2
1 1 2 2 2 2 2 2 2 2 2 2 2 2 3 2 2 2 3 4 5 5 5 6 6 7 7 5 5 4 4 4 4 5 5 5 5 4 3 3 3 3 3 3
1 1 2 2 3 3 3 3 3 3 3 2 2 2 2 2 2 2 3 5 7 8 9 9 8 7 6 5 5 4 4 3 3 3 4 4 4 3 3 2 2 2 3 3
1 2 2 3 3 3 3 3 3 3 2 2 2 2 2 1 1 1 2 4 7 8 9 9 8 6 5 4 4 4 3 2 2 2 2 3 3 3 3 2 1 1 1 1
2 2 3 3 4 4 3 2 2 2 1 1 2 2 2 1 1 1 1 2 3 4 6 6 5 4 3 2 3 3 2 2 2 2 2 2 2 2 2 2 2 2 2 1
2 2 3 4 4 3 3 2 1 1 1 1 1 2 1 1 0 0 0 1 1 1 2 3 3 2 2 2 2 2 2 2 2 2 2 2 2 2 2 2 2 3 3 3
2 2 3 3 3 2 1 1 1 1 1 1 1 1 1 0 0 0 0 0 0 1 1 2 2 2 2 2 2 2 2 1 2 2 2 2 2 2 1 1 2 3 4 5
2 2 2 2 2 1 1 1 0 0 0 1 1 1 0 0 0 0 0 0 0 1 1 2 2 2 2 2 2 1 1 1 1 1 1 1 1 1 1 1 1 2 4 4
2 2 2 1 1 0 0 0 0 0 0 0 1 0 0 0 0 0 0 0 0 1 1 1 1 1 1 1 1 1 1 1 1 0 0 0 0 0 1 1 1 2 3 3
2 1 1 1 0 0 0 0 0 0 0 0 0 0 0 0 0 0 0 0 0 1 1 1 1 1 1 1 1 1 1 1 1 1 0 0 0 0 1 1 2 3 3 4
1 1 0 0 0 0 0 0 0 0 0 0 0 0 0 0 0 0 0 0 1 1 1 0 0 0 0 0 0 1 0 0 0 1 1 1 1 1 1 1 2 3 3 4
0 0 0 0 0 0 0 0 0 0 0 0 0 0 0 0 0 0 0 0 0 0 0 0 0 0 0 0 0 0 0 0 0 1 1 1 1 1 1 1 1 2 2 2
0 0 0 0 0 0 0 0 0 0 0 0 0 0 0 0 0 0 0 0 0 0 0 0 0 0 0 0 0 0 0 0 0 1 1 1 1 1 1 0 0 0 1 1
0 0 0 0 0 0 0 0 0 0 0 0 0 0 0 0 0 0 0 0 0 0 0 0 0 0 0 0 0 0 0 0 0 0 1 1 1 1 0 0 0 0 0 0
0 0 0 0 0 0 0 0 0 0 0 0 0 0 0 0 0 0 0 0 0 0 0 0 0 0 0 0 0 0 0 0 0 0 1 0 0 0 0 0 0 0 0 0
0 0 0 0 0 0 0 0 0 0 0 0 0 0 0 0 0 0 0 0 0 0 0 0 0 0 0 0 0 0 0 0 0 0 0 0 0 0 0 0 0 0 0 0
0 0 0 0 0 0 0 0 0 0 0 0 0 0 0 0 0 0 0 0 0 0 0 0 0 0 0 0 0 0 0 0 0 0 0 0 0 0 0 0 0 0 0 0
0 0 0 0 0 0 0 0 0 0 0 0 0 0 0 0 0 0 0 0 0 0 0 0 0 0 0 0 0 0 0 0 0 0 0 0 0 0 0 0 0 0 0 0